Regional Weather Roundup
Issued by NWS

Home | Current Version | Previous Version | Text Only | Print | Product List | Glossary Off
Versions: 1 2 3 4 5 6 7 8 9 10 11 12 13 14 15 16 17 18 19 20 21 22 23 24 25 26 27 28 29 30 31 32 33 34 35 36 37 38 39 40 41 42 43 44 45 46 47 48 49 50

000
ASUS43 KMKX 020311
RWRWI

WISCONSIN REGIONAL WEATHER ROUNDUP
NATIONAL WEATHER SERVICE MILWAUKEE/SULLIVAN WI
1000 PM CDT TUE SEP 01 2015

NOTE: "FAIR" INDICATES FEW OR NO CLOUDS BELOW 12,000 FEET WITH NO
SIGNIFICANT WEATHER AND/OR OBSTRUCTIONS TO VISIBILITY.

WIZ001-002-006>008-014>016-023>028-020400-
NORTHWEST WISCONSIN

CITY           SKY/WX    TMP DP  RH WIND       PRES   REMARKS
SUPERIOR ARPT  FOG       67  67 100 CALM      29.92R VSB<1/4
ASHLAND        PTCLDY    69  69 100 CALM      29.95R FOG
HAYWARD        PTCLDY    71  69  93 CALM      29.96R FOG
SIREN            N/A     72  71  95 S3        29.94S FOG
CUMBERLAND     MOCLDY    72  70  94 CALM      29.96R FOG
RICE LAKE      MOCLDY    73  70  92 CALM      29.97R FOG
CHETEK         CLOUDY   N/A N/A N/A CALM      29.95R
LADYSMITH      CLOUDY    74  72  94 CALM      29.99R
EAU CLAIRE     MOCLDY    78  73  84 SW5       29.94R HX  81
MENOMONIE      PTCLDY    75  73  93 CALM      29.94R
NEW RICHMOND   PTCLDY    75  74  96 CALM      29.94F FOG
OSCEOLA        MOCLDY    75  75 100 E3        29.95F
$$

WIZ003>005-009-010-017-018-020400-
NORTH CENTRAL WISCONSIN

CITY           SKY/WX    TMP DP  RH WIND       PRES   REMARKS
MANITOWISH WTR FOG       67  67 100 CALM      29.99S VSB 1/4
ARBOR VITAE    MOCLDY    72  70  95 CALM      30.00R FOG
WOODRUFF       MOCLDY    72  70  95 CALM      30.00R FOG
RHINELANDER    CLOUDY    71  69  93 CALM      30.01R FOG
EAGLE RIVER    MOCLDY    67  67 100 CALM      30.00R FOG
LAND O LAKES   PTCLDY    66  65  98 CALM      30.01S FOG
PHILLIPS       PTCLDY    71  71 100 CALM      29.99R
TOMAHAWK       CLOUDY    70  69  96 CALM      30.00R FOG
MEDFORD        FOG       69  69 100 CALM      29.99S VSB 3/4
MERRILL        CLOUDY    72  72 100 CALM      29.99R FOG
$$

WIZ029-030-035-036-043>047-020400-
CENTRAL WISCONSIN

CITY           SKY/WX    TMP DP  RH WIND       PRES   REMARKS
WAUSAU         MOCLDY    76  71  85 CALM      29.96R
MOSINEE        CLEAR     73  73 100 CALM      29.99R
MARSHFIELD     MOCLDY    74  69  85 CALM      29.98R
STEVENS POINT  MOCLDY    74  70  88 CALM      29.98S
WAUPACA        MOCLDY    75  75  98 CALM      29.97R
WAUTOMA        MOCLDY    73  73 100 CALM      29.98R
WISC RAPIDS    MOCLDY    76  71  85 CALM      29.98R
CAMP DOUGLAS   MOCLDY    72  72 100 SE2       29.96R
$$

WIZ011>013-019>022-031-037>040-048>050-020400-
NORTHEAST WISCONSIN

CITY           SKY/WX    TMP DP  RH WIND       PRES   REMARKS
ANTIGO         CLOUDY    71  70  95 CALM      30.00R
SHAWANO        CLOUDY    76  71  86 CALM      29.96S
OCONTO         PTCLDY    72  72 100 CALM      29.94S
STURGEON BAY   PTCLDY    73  66  78 S8        29.98S
GREEN BAY      MOCLDY    75  71  87 S3        29.96S
MANITOWOC      CLEAR     63  61  93 MISG      29.98S
APPLETON       MOCLDY    75  70  83 VRB5      29.96S
CLINTONVILLE   MOCLDY    72  70  94 CALM      29.96R
OSHKOSH        PTCLDY    76  71  85 S7        29.97R
$$

WIZ032>034-041-042-053>061-020400-
SOUTHWEST WISCONSIN

CITY           SKY/WX    TMP DP  RH WIND       PRES   REMARKS
LA CROSSE      PTCLDY    79  73  82 S6        29.94R HX  82
SPARTA         PTCLDY    73  69  89 CALM      29.96R
VIROQUA          N/A     75  75 100 SW6       30.00R
BOSCOBEL       MOCLDY    75  73  93 CALM      29.97R
PRAIRIE DU CHI MOCLDY    77  72  85 CALM      29.97R
PLATTEVILLE    MOCLDY    74  73  94 S6        30.01R
$$

WIZ056-057-062-063-064-067-068-020400-
SOUTH CENTRAL WISCONSIN

CITY           SKY/WX    TMP DP  RH WIND       PRES   REMARKS
REEDSBURG      MOCLDY    76  73  90 SW3       29.97S
BARABOO/DELLS  MOCLDY    74  70  85 S5        29.98R
LONE ROCK      MOCLDY    74  71  91 CALM      29.98R
MINERAL POINT  MOCLDY    77  73  88 SW6       30.02R
MADISON        PTCLDY    78  71  79 S5        29.99R HX  80
MIDDLETON      PTCLDY    74  72  95 CALM      30.00R
WATERTOWN      PTCLDY    73  73 100 CALM      29.99R
MONROE         PTCLDY    77  70  78 SW12      30.01R
JANESVILLE     CLEAR     77  72  83 SW3       30.00R
$$

WIZ051-052-058>065-066-070>072-020400-
SOUTHEAST WISCONSIN

CITY           SKY/WX    TMP DP  RH WIND       PRES   REMARKS
MILWAUKEE      PTCLDY    79  70  74 S7        30.00R HX  82
WAUKESHA       CLEAR     73  70  88 S5        30.02R
MILWAUKEE/TIMM PTCLDY    77  68  73 S5        30.01R
RACINE         CLEAR     78  69  73 SW6       30.02R HX  80
BURLINGTON     CLEAR     70  68  95 CALM      30.01S
KENOSHA        CLEAR     77  71  82 S6        30.01R
FOND DU LAC    PTCLDY    74  71  91 SW6       29.98R
SHEBOYGAN      CLEAR     72  69  90 CALM      29.98S FOG
WEST BEND      CLEAR     72  68  88 CALM      30.00R
JUNEAU         PTCLDY    75  71  86 S5        30.00S
$$

LSZ147-162-020400-
LAKE SUPERIOR

STATION/POSITION TIME  TEMP    WIND        PRES    WAVE
                       AIR SEA DIR/SP/G            HT/PER
                 (UTC) (F)     (DEG/KT/KT) (MB)    (FT/S)
W MID LAKE BUOY  0250   60 56  170/  4/  6 1013.6R   0
DEVILS ISLAND    0300   70     160/  5/  7 1013.5R
PORT WING        0200   69      40/  5/  7 1013.2
SAXON HARBOR     0240   74        CALM     1013.2R
$$

LMZ867-665-643>646-020400-
LAKE MICHIGAN

STATION/POSITION TIME  TEMP    WIND        PRES    WAVE
                       AIR SEA DIR/SP/G            HT/PER
                 (UTC) (F)     (DEG/KT/KT) (MB)    (FT/S)
CHAMBERS ISLAND  0200   74     160/  3/  7 1013.9S
S GREEN BAY BUOY 0230   72 67  180/  6/  6 1015.6R
N MID LAKE BUOY  0250   67 65  210/ 12/ 14 1014.2R   2/ 4
NORTHPORT PIER   0200   70     190/  5/  9 1013.9S
SISTER BAY       0219   69     150/ 10/ 13   N/A
ALGOMA LAKESHORE 0214             CALM       N/A
KEWAUNEE LAKESHO 0200   51     170/  5/  5 1013.7R
SHEBOYGAN LAKESH 0300   66     180/  8/ 10 1015.3R
PORT WASHINGTON  0200   63      CALM  /  1 1015.6S
ATWATER BUOY     0300   60 50  170/  8/ 10 1017.0R
MILWAUKEE LAKESH 0210   65     140/  1/  2   N/A
S MID LAKE BUOY  0250   74 70  190/ 12/ 14 1015.8R   1/ 4
KENOSHA   LAKESH 0300   73     190/  5/  8 1015.9R
$$

TC  - TEMPERATURE IN CELSIUS
VSB - VISIBILITY IN STATUTE MILES
WCI - WIND CHILL INDEX
HX  - HEAT INDEX




USA.gov is the U.S. government's official web portal to all federal, state and local government web resources and services.